| time (UTC) | temp C | wind direction | speed KPH | gust KPH | rain 1hr cm | rain 24hr cm | rain mn cm | humidity % | barometer mb |
| 20260901003711 | 31 | 170 | 0.0 | 0.0 | 0.00 | 0.00 | 0.00 | 59 | 1010.2 |
| 20260901001711 | 31 | 170 | 1.6 | 3.2 | 0.00 | 0.00 | 0.00 | 57 | 1010.4 |
| 20260901000711 | 31 | 197 | 1.6 | 4.8 | 0.00 | 0.00 | 0.00 | 59 | 1010.3 |
| 20260831235710 | 31 | 218 | 1.6 | 3.2 | 0.00 | 0.00 | 0.00 | 58 | 1010.4 |
| 20260831234710 | 31 | 247 | 3.2 | 4.8 | 0.00 | 0.00 | 0.00 | 57 | 1010.5 |
| 20260831233710 | 31 | 232 | 1.6 | 4.8 | 0.00 | 0.00 | 0.00 | 56 | 1010.5 |
| 20260831232711 | 32 | 196 | 1.6 | 4.8 | 0.00 | 0.00 | 0.00 | 55 | 1010.5 |
| 20260831231711 | 32 | 219 | 1.6 | 4.8 | 0.00 | 0.00 | 0.00 | 56 | 1010.5 |
| 20260831225711 | 32 | 261 | 4.8 | 8.0 | 0.00 | 0.00 | 0.00 | 56 | 1010.6 |
| 20260831224710 | 32 | 229 | 4.8 | 8.0 | 0.00 | 0.00 | 0.00 | 55 | 1010.7 |
| 20260831223711 | 32 | 201 | 4.8 | 8.0 | 0.00 | 0.00 | 0.00 | 55 | 1010.8 |
| 20260831222710 | 32 | 185 | 3.2 | 8.0 | 0.00 | 0.00 | 0.00 | 55 | 1010.7 |
| 20260831220711 | 32 | 201 | 3.2 | 9.7 | 0.00 | 0.00 | 0.00 | 55 | 1010.9 |
| 20260831215710 | 32 | 248 | 3.2 | 4.8 | 0.00 | 0.00 | 0.00 | 55 | 1010.7 |
| 20260831214711 | 32 | 144 | 3.2 | 12.9 | 0.00 | 0.00 | 0.00 | 58 | 1010.9 |
| 20260831213711 | 32 | 136 | 3.2 | 11.3 | 0.00 | 0.00 | 0.00 | 57 | 1011.0 |
| 20260831212710 | 32 | 196 | 8.0 | 12.9 | 0.00 | 0.00 | 0.00 | 56 | 1011.0 |
| 20260831211711 | 32 | 154 | 4.8 | 9.7 | 0.00 | 0.00 | 0.00 | 56 | 1010.9 |
| 20260831210710 | 32 | 290 | 3.2 | 9.7 | 0.00 | 0.00 | 0.00 | 56 | 1010.9 |
| 20260831205711 | 31 | 200 | 0.0 | 11.3 | 0.00 | 0.00 | 0.00 | 57 | 1011.0 |
| 20260831204711 | 31 | 156 | 3.2 | 11.3 | 0.00 | 0.00 | 0.00 | 59 | 1011.2 |
| 20260831203710 | 31 | 204 | 3.2 | 12.9 | 0.00 | 0.00 | 0.00 | 60 | 1011.3 |
| 20260831202711 | 31 | 196 | 4.8 | 12.9 | 0.00 | 0.00 | 0.00 | 63 | 1011.3 |
| 20260831201710 | 31 | 49 | 3.2 | 12.9 | 0.00 | 0.00 | 0.00 | 64 | 1011.3 |
| 20260831200711 | 31 | 160 | 4.8 | 12.9 | 0.00 | 0.00 | 0.00 | 65 | 1011.4 |
| 20260831195710 | 31 | 116 | 3.2 | 8.0 | 0.00 | 0.00 | 0.00 | 64 | 1011.3 |
| 20260831194711 | 30 | 155 | 1.6 | 4.8 | 0.00 | 0.00 | 0.00 | 64 | 1011.3 |
| 20260831193711 | 30 | 260 | 1.6 | 9.7 | 0.00 | 0.00 | 0.00 | 67 | 1011.5 |
| 20260831192711 | 30 | 144 | 3.2 | 9.7 | 0.00 | 0.00 | 0.00 | 65 | 1011.4 |
| 20260831191710 | 29 | 167 | 4.8 | 8.0 | 0.00 | 0.00 | 0.00 | 68 | 1011.5 |
| 20260831190710 | 29 | 268 | 4.8 | 11.3 | 0.00 | 0.00 | 0.00 | 69 | 1011.6 |
| 20260831185710 | 29 | 300 | 4.8 | 9.7 | 0.00 | 0.00 | 0.00 | 69 | 1011.8 |
| 20260831184711 | 29 | 11 | 4.8 | 11.3 | 0.00 | 0.00 | 0.00 | 72 | 1011.8 |
| 20260831183710 | 28 | 222 | 1.6 | 12.9 | 0.00 | 0.00 | 0.00 | 70 | 1011.6 |
| 20260831181711 | 28 | 52 | 3.2 | 8.0 | 0.00 | 0.00 | 0.00 | 71 | 1011.8 |
| 20260831180710 | 28 | 323 | 0.0 | 9.7 | 0.00 | 0.00 | 0.00 | 71 | 1011.8 |
| 20260831175711 | 28 | 287 | 3.2 | 12.9 | 0.00 | 0.00 | 0.00 | 74 | 1011.9 |
| 20260831174711 | 27 | 65 | 4.8 | 12.9 | 0.00 | 0.00 | 0.00 | 72 | 1011.7 |
| 20260831173711 | 27 | 30 | 4.8 | 8.0 | 0.00 | 0.00 | 0.00 | 74 | 1011.8 |
| 20260831172710 | 27 | 310 | 0.0 | 11.3 | 0.00 | 0.00 | 0.00 | 73 | 1011.7 |
| 20260831171710 | 27 | 305 | 4.8 | 4.8 | 0.00 | 0.00 | 0.00 | 73 | 1011.8 |
| 20260831170711 | 26 | 9 | 6.4 | 11.3 | 0.00 | 0.00 | 0.00 | 76 | 1011.7 |
| 20260831165710 | 26 | 329 | 4.8 | 14.5 | 0.00 | 0.00 | 0.00 | 75 | 1011.4 |
| 20260831164710 | 26 | 288 | 4.8 | 14.5 | 0.00 | 0.00 | 0.00 | 77 | 1011.5 |
| 20260831163711 | 26 | 300 | 4.8 | 16.1 | 0.00 | 0.00 | 0.00 | 77 | 1011.5 |
| 20260831162711 | 25 | 5 | 4.8 | 16.1 | 0.00 | 0.00 | 0.00 | 78 | 1011.6 |
| 20260831161710 | 25 | 315 | 8.0 | 16.1 | 0.00 | 0.00 | 0.00 | 77 | 1011.4 |
| 20260831160711 | 25 | 311 | 14.5 | 20.9 | 0.00 | 0.00 | 0.00 | 78 | 1011.6 |
| 20260831155710 | 24 | 324 | 14.5 | 19.3 | 0.00 | 0.00 | 0.00 | 79 | 1011.3 |
| 20260831154710 | 24 | 329 | 9.7 | 16.1 | 0.00 | 0.00 | 0.00 | 80 | 1011.4 |
| 20260831153710 | 23 | 303 | 8.0 | 19.3 | 0.00 | 0.00 | 0.00 | 80 | 1011.4 |
| 20260831152711 | 23 | 300 | 8.0 | 19.3 | 0.00 | 0.00 | 0.00 | 82 | 1011.0 |
| 20260831151711 | 22 | 296 | 12.9 | 20.9 | 0.00 | 0.00 | 0.00 | 83 | 1011.3 |
| 20260831150710 | 22 | 315 | 11.3 | 20.9 | 0.00 | 0.00 | 0.00 | 83 | 1011.1 |
| 20260831145711 | 22 | 316 | 8.0 | 16.1 | 0.00 | 0.00 | 0.00 | 83 | 1010.9 |
| 20260831143710 | 22 | 315 | 14.5 | 20.9 | 0.00 | 0.00 | 0.00 | 85 | 1011.3 |
| 20260831142711 | 22 | 319 | 11.3 | 20.9 | 0.00 | 0.00 | 0.00 | 86 | 1010.7 |
| 20260831141711 | 21 | 332 | 9.7 | 24.1 | 0.00 | 0.00 | 0.00 | 86 | 1010.6 |
| 20260831135711 | 21 | 305 | 11.3 | 20.9 | 0.00 | 0.00 | 0.00 | 88 | 1010.4 |
| 20260831134711 | 21 | 0 | 11.3 | 20.9 | 0.00 | 0.00 | 0.00 | 88 | 1009.9 |
| 20260831133711 | 20 | 331 | 9.7 | 20.9 | 0.00 | 0.00 | 0.00 | 87 | 1010.0 |
| 20260831132710 | 20 | 12 | 11.3 | 19.3 | 0.00 | 0.00 | 0.00 | 87 | 1010.7 |
| 20260831131710 | 20 | 308 | 3.2 | 14.5 | 0.00 | 0.00 | 0.00 | 86 | 1010.8 |
| 20260831130710 | 20 | 324 | 8.0 | 14.5 | 0.00 | 0.00 | 0.00 | 86 | 1010.7 |
| 20260831125711 | 20 | 284 | 8.0 | 16.1 | 0.00 | 0.00 | 0.00 | 85 | 1011.6 |
| 20260831123711 | 20 | 219 | 16.1 | 29.0 | 0.00 | 0.00 | 0.00 | 86 | 1012.3 |
| 20260831122711 | 20 | 245 | 19.3 | 27.4 | 0.00 | 0.00 | 0.00 | 86 | 1011.9 |
| 20260831121711 | 20 | 244 | 11.3 | 19.3 | 0.00 | 0.00 | 0.00 | 86 | 1011.1 |
| 20260831120710 | 20 | 252 | 8.0 | 14.5 | 0.00 | 0.00 | 0.00 | 86 | 1010.5 |
| 20260831115710 | 21 | 286 | 8.0 | 20.9 | 0.00 | 0.00 | 0.00 | 86 | 1010.2 |
| 20260831114711 | 21 | 284 | 8.0 | 16.1 | 0.00 | 0.00 | 0.00 | 87 | 1009.9 |
| 20260831113710 | 21 | 261 | 4.8 | 16.1 | 0.00 | 0.00 | 0.00 | 87 | 1009.4 |
| 20260831111711 | 22 | 282 | 14.5 | 22.5 | 0.00 | 0.00 | 0.00 | 87 | 1009.1 |
| 20260831110710 | 22 | 285 | 11.3 | 19.3 | 0.00 | 0.00 | 0.00 | 89 | 1008.9 |
| 20260831105711 | 22 | 286 | 4.8 | 11.3 | 0.00 | 0.00 | 0.00 | 90 | 1008.8 |
| 20260831104711 | 22 | 260 | 3.2 | 9.7 | 0.00 | 0.00 | 0.00 | 90 | 1008.6 |
| 20260831103710 | 22 | 255 | 4.8 | 14.5 | 0.00 | 0.00 | 0.00 | 90 | 1008.2 |
| 20260831100711 | 22 | 253 | 4.8 | 9.7 | 0.00 | 0.00 | 0.00 | 92 | 1007.8 |
| 20260831095710 | 22 | 270 | 3.2 | 4.8 | 0.00 | 0.00 | 0.00 | 92 | 1007.9 |
| 20260831094711 | 22 | 299 | 1.6 | 3.2 | 0.00 | 0.00 | 0.00 | 92 | 1007.8 |
| 20260831091711 | 21 | 266 | 3.2 | 4.8 | 0.00 | 0.00 | 0.00 | 91 | 1007.6 |
| 20260831090710 | 21 | 261 | 1.6 | 4.8 | 0.00 | 0.00 | 0.00 | 91 | 1007.5 |
| 20260831085711 | 21 | 298 | 1.6 | 4.8 | 0.00 | 0.00 | 0.00 | 91 | 1007.3 |
| 20260831084711 | 22 | 304 | 0.0 | 3.2 | 0.00 | 0.00 | 0.00 | 91 | 1007.2 |
| 20260831083710 | 22 | 278 | 0.0 | 3.2 | 0.00 | 0.00 | 0.00 | 91 | 1007.1 |
| 20260831082711 | 22 | 295 | 1.6 | 4.8 | 0.00 | 0.00 | 0.00 | 91 | 1007.4 |
| 20260831081711 | 22 | 311 | 3.2 | 8.0 | 0.00 | 0.00 | 0.00 | 90 | 1007.2 |
| 20260831080711 | 22 | 307 | 1.6 | 4.8 | 0.00 | 0.00 | 0.00 | 90 | 1007.1 |
| 20260831075710 | 22 | 331 | 0.0 | 0.0 | 0.00 | 0.00 | 0.00 | 90 | 1007.1 |
| 20260831074710 | 22 | 331 | 0.0 | 0.0 | 0.00 | 0.00 | 0.00 | 90 | 1007.1 |
| 20260831072711 | 22 | 182 | 0.0 | 3.2 | 0.00 | 0.00 | 0.00 | 90 | 1007.2 |
| 20260831071711 | 22 | 182 | 1.6 | 4.8 | 0.00 | 0.00 | 0.00 | 90 | 1007.2 |
| 20260831065711 | 22 | 177 | 1.6 | 4.8 | 0.00 | 0.00 | 0.00 | 90 | 1007.2 |
| 20260831064710 | 22 | 194 | 0.0 | 3.2 | 0.00 | 0.00 | 0.00 | 91 | 1007.2 |
| 20260831063710 | 23 | 194 | 1.6 | 3.2 | 0.00 | 0.00 | 0.00 | 91 | 1007.3 |
| 20260831062711 | 23 | 183 | 1.6 | 8.0 | 0.00 | 0.00 | 0.00 | 91 | 1007.0 |
| 20260831061710 | 23 | 172 | 4.8 | 8.0 | 0.00 | 0.00 | 0.00 | 91 | 1007.1 |
| 20260831060710 | 23 | 169 | 0.0 | 3.2 | 0.00 | 0.00 | 0.00 | 91 | 1006.9 |
| 20260831055711 | 23 | 169 | 1.6 | 3.2 | 0.00 | 0.00 | 0.00 | 91 | 1007.0 |
| 20260831054711 | 23 | 169 | 0.0 | 3.2 | 0.00 | 0.00 | 0.00 | 91 | 1006.7 |
| 20260831053711 | 23 | 169 | 0.0 | 1.6 | 0.00 | 0.00 | 0.00 | 90 | 1006.6 |
| 20260831052710 | 23 | 168 | 0.0 | 1.6 | 0.00 | 0.00 | 0.00 | 90 | 1006.5 |
| 20260831050710 | 23 | 168 | 1.6 | 3.2 | 0.00 | 0.00 | 0.00 | 89 | 1006.3 |
| 20260831045711 | 23 | 169 | 0.0 | 0.0 | 0.00 | 0.00 | 0.00 | 89 | 1006.4 |
| 20260831044710 | 23 | 168 | 0.0 | 0.0 | 0.00 | 0.00 | 0.00 | 88 | 1006.4 |
| 20260831043711 | 23 | 168 | 0.0 | 0.0 | 0.00 | 0.00 | 0.00 | 88 | 1006.6 |
| 20260831042711 | 23 | 168 | 0.0 | 0.0 | 0.00 | 0.00 | 0.00 | 87 | 1006.3 |
| 20260831040711 | 24 | 168 | 0.0 | 0.0 | 0.00 | 0.00 | 0.00 | 86 | 1006.3 |
| 20260831035710 | 24 | 168 | 0.0 | 0.0 | 0.00 | 0.00 | 0.00 | 86 | 1006.6 |
| 20260831034710 | 25 | 169 | 0.0 | 0.0 | 0.00 | 0.00 | 0.00 | 85 | 1006.4 |
| 20260831033710 | 25 | 169 | 0.0 | 0.0 | 0.00 | 0.00 | 0.00 | 85 | 1006.3 |
| 20260831032711 | 25 | 169 | 0.0 | 0.0 | 0.00 | 0.00 | 0.00 | 84 | 1006.6 |
| 20260831031710 | 25 | 169 | 0.0 | 0.0 | 0.00 | 0.00 | 0.00 | 84 | 1006.6 |
| 20260831030710 | 25 | 169 | 0.0 | 0.0 | 0.00 | 0.00 | 0.00 | 83 | 1006.8 |
| 20260831025711 | 25 | 169 | 0.0 | 0.0 | 0.00 | 0.00 | 0.00 | 83 | 1006.7 |
| 20260831024711 | 26 | 169 | 0.0 | 1.6 | 0.00 | 0.00 | 0.00 | 83 | 1006.9 |
| 20260831023710 | 26 | 169 | 1.6 | 3.2 | 0.00 | 0.00 | 0.00 | 83 | 1006.5 |
| 20260831022711 | 26 | 169 | 3.2 | 4.8 | 0.00 | 0.00 | 0.00 | 82 | 1006.7 |
| 20260831021711 | 26 | 271 | 0.0 | 0.0 | 0.00 | 0.00 | 0.00 | 80 | 1006.7 |
| 20260831015711 | 27 | 271 | 1.6 | 1.6 | 0.00 | 0.00 | 0.00 | 79 | 1006.3 |
| 20260831014710 | 27 | 270 | 1.6 | 1.6 | 0.00 | 0.00 | 0.00 | 78 | 1005.9 |
| 20260831013710 | 27 | 270 | 1.6 | 3.2 | 0.00 | 0.00 | 0.00 | 78 | 1006.1 |
| 20260831012711 | 27 | 270 | 1.6 | 3.2 | 0.00 | 0.00 | 0.00 | 77 | 1006.2 |
| 20260831011710 | 28 | 270 | 1.6 | 3.2 | 0.00 | 0.00 | 0.00 | 76 | 1006.0 |
| 20260831010710 | 28 | 270 | 1.6 | 3.2 | 0.00 | 0.00 | 0.00 | 75 | 1006.0 |
| 20260831005710 | 29 | 265 | 3.2 | 4.8 | 0.00 | 0.00 | 0.00 | 73 | 1006.0 |
| 20260831004711 | 30 | 286 | 1.6 | 3.2 | 0.00 | 0.00 | 0.00 | 71 | 1005.9 |